www.pogodaiklimat.ru

Погода и климат >> Архив погоды >> Молдова >> Кишинев


АРХИВ ПОГОДЫ в Кишиневе

Время (UTC), дата Ветер
(напр.,м/с)
 
Видим.   Явления Облачность Т
(С)
Тd
(С)
f
(%)
Тe
(С)
Тes
(С)
Комфортность P
(гПа)
Po
(гПа)
Тmin
(С)
Tmax
(С)
R
(мм)
R24
(мм)
S
(см)
03 14.08 штиль 0 20 км ясно +18.5 +8.9 54 +19 +19 по сезону 1013.4 994.2
06 14.08 штиль 0 20 км ясно +23.0 +12.1 50 +26 +33 жарко 1014.2 995.0 +18.9
09 14.08 СЗ 1 20 км ясно +28.9 +11.7 34 +30 +47 жарко 1014.4 995.1
12 14.08 ЮЗ 2 20 км 1/0
[Ci fib]
+31.4 +6.5 21 +30 +42 жарко 1013.0 994.0
15 14.08 ЮЗ 3 20 км ясно +31.0 +4.7 19 +29 +31 жарко 1012.2 993.2
18 14.08 Ю 2 20 км 1/0
[Ac trans]
+25.4 +7.1 31 +25 +25 комфорт 1013.0 993.6 +32.2
21 14.08 ЮЗ 1 20 км ясно +22.2 +9.0 43 +24 +24 комфорт 1013.9 994.3
00 15.08 З 2 20 км ясно +20.7 +11.1 54 +23 +23 комфорт 1013.9 994.2
03 15.08 штиль 0 20 км ясно +19.2 +10.5 57 +20 +20 по сезону 1013.8 994.0
06 15.08 Ю 1 20 км 1/0
[Ci fib]
+23.0 +12.0 50 +26 +32 жарко 1013.9 994.4 +18.7
09 15.08 ЮЗ 2 20 км 1/0
[Ci fib]
+29.7 +9.3 28 +29 +43 жарко 1013.7 994.6
12 15.08 ЮЗ 3 20 км 4/0
[Ci fib]
+32.2 +4.9 18 +30 +39 жарко 1012.9 993.9
15 15.08 ЮЗ 2 20 км 5/0
[Ci fib]
+32.1 +4.8 18 +30 +32 жарко 1012.1 993.1
18 15.08 З 1 20 км 3/0
[Ac trans Ci fib]
+29.3 +4.7 21 +28 +28 жарко 1013.4 994.2 +33.2
21 15.08 штиль 0 20 км ясно +26.0 +6.6 29 +26 +26 жарко 1013.6 994.2
00 16.08 СЗ 2 20 км ясно +21.5 +9.1 45 +23 +23 комфорт 1014.2 994.5
03 16.08 С 3 20 км 3/0
[Ac trans]
+20.7 +13.7 64 +24 +24 комфорт 1014.2 994.5
06 16.08 С 3 20 км 5/3 600 м
[Cu med, cong Ac trans Ci fib]
+20.5 +15.3 72 +24 +26 комфорт 1015.0 995.3 +20.1
09 16.08 СЗ 3 20 км 8/4 600 м
[Cu med, cong Ac trans Ci fib]
+27.0 +16.3 52 +30 +35 душно 1014.5 995.2
12 16.08 С 3 20 км 8/3 600 м
[Cu hum Ac trans Ci fib]
+31.5 +12.3 31 +32 +37 жарко 1013.5 994.5
15 16.08 СЗ 3 20 км 6/1 600 м
[Cu hum Ac trans Ci fib]
+30.2 +9.7 28 +30 +31 жарко 1012.5 993.4
18 16.08 С 4 20 км 5/4 600 м
[Sc Ac trans]
+27.4 +11.0 36 +28 +28 жарко 1013.5 994.2 +33.1
21 16.08 С 4 20 км 4/0
[Ac trans Ci fib]
+24.5 +13.7 51 +27 +27 жарко 1013.9 994.5
00 17.08 С 4 20 км 3/0
[Ci fib]
+23.3 +15.1 60 +27 +27 душно 1013.9 994.4
03 17.08 С 3 20 км 3/1 600 м
[Cu hum Ac trans Ci fib]
+21.2 +13.9 63 +24 +24 комфорт 1014.8 995.1
06 17.08 СВ 4 20 км 6/3 600 м
[Cu hum Ci fib]
+22.7 +12.9 54 +26 +28 жарко 1015.1 995.5 +20.9
09 17.08 С 3 20 км 8/4 600 м
[Cu hum Ci fib]
+28.0 +13.2 40 +30 +36 жарко 1014.4 995.2
12 17.08 С 3 20 км 3/3 600 м
[Cu hum Ci fib]
+32.3 +12.0 29 +33 +40 жарко 1013.1 994.2
15 17.08 С 2 20 км 8/5 600 м
[Cb calv Ac trans Ci fib]
+30.9 +8.6 25 +30 +31 жарко 1012.5 993.5
18 17.08 С 5 20 км зарница 10/8 600 м
[Cb calv Ac trans Ci fib]
+27.8 +13.7 42 +30 +30 жарко 1013.6 994.4 +33.1
21 17.08 СЗ 5 20 км зарница 10/5 600 м
[Cb calv Ac trans]
+25.3 +13.8 49 +28 +28 жарко 1014.4 995.0
00 18.08 С 4 20 км 4/0
[Ci fib]
+24.2 +12.5 48 +26 +26 жарко 1014.1 994.6
03 18.08 С 2 20 км 6/0
[Ac trans Ci fib]
+22.4 +11.5 50 +25 +25 комфорт 1014.6 995.0
06 18.08 С 1 20 км 8/4 600 м
[Cu med, cong Ac trans Ci fib]
+24.0 +13.3 51 +26 +29 жарко 1015.6 996.1 +21.9
09 18.08 В 4 20 км 8/3 600 м
[Cu med, cong Ac trans Ci fib]
+28.9 +13.2 38 +30 +35 жарко 1015.8 996.6
12 18.08 С 4 20 км 10/3 600 м
[Cu med, cong Ac trans Ci fib]
+32.4 +11.6 28 +32 +35 жарко 1014.7 995.7
15 18.08 В 4 20 км 6/1 600 м
[Cu med, cong Ac trans Ci fib]
+29.6 +9.2 28 +29 +30 жарко 1015.1 995.9
18 18.08 З 3 20 км 8/1 600 м
[Cu med, cong Ac trans Ci sp]
+25.1 +10.2 39 +26 +26 жарко 1016.9 997.4 +33.0
21 18.08 В 2 20 км ясно +23.0 +11.4 48 +25 +25 комфорт 1017.3 997.7
00 19.08 штиль 0 20 км ясно +21.3 +11.6 54 +23 +23 комфорт 1017.6 997.9
03 19.08 СЗ 2 20 км ясно +20.2 +12.2 60 +23 +23 комфорт 1017.0 997.2
06 19.08 штиль 0 20 км 1/0
[Ci fib]
+23.7 +12.7 50 +26 +32 жарко 1017.6 998.0 +19.1
09 19.08 Ю 2 20 км 4/1 600 м
[Cu hum Ac trans Ci fib]
+28.6 +11.7 35 +29 +40 жарко 1017.7 998.4
12 19.08 ЮВ 2 20 км 8/5 600 м
[Cu med, cong Ac trans Ci fib]
+30.8 +11.2 30 +31 +35 жарко 1016.2 997.1
15 19.08 СВ 2 20 км гроза без осадков 10/8 600 м
[Cb calv Ac trans Ci fib]
+25.4 +12.3 44 +27 +27 жарко 1016.3 996.9
18 19.08 С 2 20 км {гроза} 10/5 600 м
[Cb calv Ac trans Ci fib]
+24.4 +14.5 54 +27 +27 жарко 1016.5 997.0 +31.5
21 19.08 С 4 20 км 3/0
[Ac trans Ci fib]
+22.5 +13.6 57 +26 +26 жарко 1016.6 997.0
00 20.08 СЗ 1 20 км 3/0
[Ci fib]
+20.3 +14.4 69 +24 +24 комфорт 1016.2 996.5
03 20.08 С 2 20 км ясно +19.3 +14.6 74 +21 +21 комфорт 1016.3 996.5
06 20.08 С 1 20 км 1/0
[Ci fib]
+22.2 +15.6 66 +26 +32 душно 1016.4 996.8 +18.5
09 20.08 В 2 20 км ясно +27.7 +14.4 44 +30 +44 жарко 1016.0 996.7
12 20.08 В 2 20 км 6/4 600 м
[Cu hum Ci fib]
+30.6 +11.1 30 +31 +37 жарко 1014.8 995.7
15 20.08 З 1 20 км 9/8 600 м
[Cb calv Ac trans Ci fib]
+29.2 +13.4 38 +31 +31 жарко 1013.8 994.7
18 20.08 Ю 1 20 км 6/0
[Ac trans Ci fib]
+25.6 +13.1 46 +28 +28 жарко 1014.4 995.0 +31.7
21 20.08 ЮЗ 3 20 км 4/0
[Ac trans Ci fib]
+21.9 +9.1 44 +23 +23 комфорт 1015.4 995.7

 

Местоположение метеостанции Кишинев (Молдова): широта 47.02 долгота 28.98 высота над уровнем моря 173 м.

В архиве по умолчанию представлена погода в Кишиневе за последнюю неделю. Архивные данные за месяц целиком и за предыдущие месяцы, начиная с января 2011 года, Вы можете получить, выбрав интересующий диапазон дат из раскрывающегося списка и нажав кнопку "Ввод!".


*Определитесь, кто Вы:
робот инопланетянин человек

Внимание! Время в таблицах - всемирное. Для получения местного времени необходимо прибавить поправку, которая в Кишиневе равна 2 ч.

Смотрите также архив погоды в соседних городах и на ближайших метеорологических станциях:

Погода в Балцате (Молдова) (5 км)
Погода в Дубоссарах (Молдова) (29 км)
Погода в Кодрах (Молдова) (46 км)
Погода в Тирасполе (Молдова) (49 км)
Погода в Бравичах (Молдова) (57 км)
Погода в Штефан Водэ (Молдова) (67 км)
Погода в Корнестах (Молдова) (76 км)
Погода в Затишье (Одесская область, Украина) (76 км)
Погода в Леове (Молдова) (80 км)
Погода в Заставе (Одесская область, Украина) (81 км)

Пояснения к столбцам:

Ветер - указаны скорость ветра в м/с - средняя за 10 мин, порывы в срок и между сроками (в фигурных скобках) и направление, откуда дует ветер: С - северный, СВ - северо-восточный, В - восточный, ЮВ - юго-восточный, Ю - южный, ЮЗ - юго-западный, З - западный, СЗ - северо-западный.
Видимость - горизонтальная дальность видимости в метрах или километрах. При видимости от 1 до 10 км при отсутствии осадков обычно наблюдается дымка, при ухудшении видимости до 1 км и менее - туман. В сухую погоду видимость может ухудшаться дымом, пылью или мглою.
Явления - указаны атмосферные явления, наблюдавшиеся в срок или в последний час перед сроком; фигурными скобками обозначены явления, наблюдавшиеся между сроками (за 1-3 часа до срока); квадратными скобками обозначены град или гололедные отложения с указанием их диаметра в мм.
Облачность - указаны через наклонную черту общая и нижняя облачность в баллах и высота нижней границы облаков в метрах; квадратными скобками обозначены формы облаков: Ci - перистые, Cs - перисто-слоистые, Cc - перисто-кучевые, Ac - высококучевые, As - высокослоистые, Sc - слоисто-кучевые, Ns - слоисто-дождевые, Cu - кучевые, Cb - кучево-дождевые. Подробнее классификацию облаков см. в Атласе облаков (PDF).
T - Температура воздуха - температура, измеренная на высоте 2 м над землей.
Td - Температура точки росы - температура, при понижении до которой содержащийся в воздухе водяной пар достигнет насыщения.
f - Относительная влажность воздуха - влажноcть воздуха, измеренная на высоте 2 м над землей.
Te - Эффективная температура - температура, которую ощущает одетый по сезону человек в тени. Характеристика душности погоды. При расчете учитывается влияние влажности воздуха и скорости ветра на теплоощущения человека.
Tes - Эффективная температура на солнце - температура, которую ощущает человек, с поправкой на солнечный нагрев. Характеристика знойности погоды. Зависит от высоты солнца над горизонтом, облачности и скорости ветра. Ночью, в пасмурную погоду, а также при ветре 12 м/с и более поправка равна нулю.
P - Атмосферное давление - приведенное к уровню моря атмосферное давление.
Po - Атмосферное давление - измеренное на уровне метеостанции атмосферное давление.
Tmin - Минимальная температура - минимум температуры воздуха на высоте 2 м над землей.
Tmax - Максимальная температура - максимум температуры воздуха на высоте 2 м над землей.
R - Количество осадков - Количество выпавших осадков за период времени, мм. При наведении курсора мыши на число - период времени, за который выпало указанное количество осадков.
R24 - Количество осадков - Количество выпавших осадков за 24 часа, мм.
S - Снежный покров - Высота снежного покрова, см. При наведении курсора мыши на число - состояние снежного покрова и степень покрытия местности в баллах.